This is the latest recevied weather packets stored in our database for station/object KI4NG. If no packets are shown the sender has not sent any weather packets the latest 10 day(s).
| Time | Temp. | Humidity | Pressure | Rain* | Wind** | Luminosity | Snow |
|---|---|---|---|---|---|---|---|
| 1777509291 | 13.89° C | 94% | 1013.6 hPa | 0 mm | - | 0 W/m² | - |
| 1777508989 | 14.44° C | 92% | 1013.7 hPa | 0 mm | - | 0 W/m² | - |
| 1777508686 | 14.44° C | 92% | 1013.8 hPa | 0 mm | - | 2 W/m² | - |
| 1777508383 | 15° C | 91% | 1013.7 hPa | 0 mm | - | 4 W/m² | - |
| 1777508080 | 15° C | 91% | 1013.4 hPa | 0 mm | - | 7 W/m² | - |
| 1777507777 | 15° C | 90% | 1013.4 hPa | 0 mm | - | 11 W/m² | - |
| 1777507474 | 15.56° C | 89% | 1013.5 hPa | 0 mm | - | 15 W/m² | - |
| 1777507170 | 15.56° C | 88% | 1013.6 hPa | 0 mm | - | 18 W/m² | - |
| 1777506869 | 15.56° C | 89% | 1013.4 hPa | 0 mm | - | 23 W/m² | - |
| 1777506565 | 15.56° C | 88% | 1013.4 hPa | 0 mm | - | 29 W/m² | - |
| 1777506261 | 15.56° C | 88% | 1013.5 hPa | 0 mm | - | 30 W/m² | - |
| 1777505958 | 16.11° C | 88% | 1013.4 hPa | 0 mm | - | 33 W/m² | - |
| 1777505653 | 16.11° C | 88% | 1013.3 hPa | 0 mm | - | 38 W/m² | - |
| 1777505351 | 16.11° C | 87% | 1013.5 hPa | 0 mm | - | 32 W/m² | - |
| 1777505047 | 16.11° C | 87% | 1013.3 hPa | 0 mm | - | 41 W/m² | - |
| 1777504744 | 16.11° C | 88% | 1013.4 hPa | 0 mm | - | 48 W/m² | - |
| 1777504441 | 16.11° C | 89% | 1013.5 hPa | 0 mm | - | 60 W/m² | - |
| 1777504136 | 16.11° C | 90% | 1013.4 hPa | 0 mm | - | 72 W/m² | - |
| 1777503832 | 16.11° C | 90% | 1013.6 hPa | 0 mm | - | 67 W/m² | - |
| 1777503529 | 16.67° C | 91% | 1013.6 hPa | 0 mm | - | 78 W/m² | - |
| 1777503225 | 16.67° C | 90% | 1013.6 hPa | 0 mm | - | 41 W/m² | - |
| 1777502922 | 16.67° C | 89% | 1013.4 hPa | 0 mm | - | 23 W/m² | - |
| 1777502619 | 17.22° C | 89% | 1013.5 hPa | 0 mm | - | 59 W/m² | - |
| 1777502316 | 17.22° C | 88% | 1013.3 hPa | 0 mm | - | 87 W/m² | - |
| 1777502013 | 17.22° C | 88% | 1013.6 hPa | 0 mm | - | 93 W/m² | - |
* Rain latest hour (hover to see other rain measurements)
** Current wind speed in m/s (hover to see current wind gust speed)